Location: Shenandoah County Park
(38.9356°N, 78.4524°W)
Time: 06:31:17
(UTC-04:00)

BlueWalker 3 - Visible Passes

Search period start: 12 September 2024 00:00
Search period end: 22 September 2024 00:00
Orbit: 476 x 487 km, 53.2° (Epoch: 11 September)

Date Brightness Start Highest point End Pass type
(mag) Time Alt. Az. Time Alt. Az. Time Alt. Az.
12 Sep 2.0 21:17:38 10° NW 21:21:15 68° WSW 21:21:15 68° WSW visible
13 Sep 1.8 20:50:06 10° NW 20:53:51 78° SW 20:54:59 42° SE visible
14 Sep 1.8 20:22:33 10° NW 20:26:17 87° SW 20:28:48 20° SE visible
15 Sep 1.8 19:54:57 10° NW 19:58:42 83° NE 20:02:26 10° SE visible
15 Sep 4.7 21:35:25 10° WSW 21:36:12 11° SW 21:36:57 10° SW visible
16 Sep 4.7 21:07:07 10° W 21:08:37 12° SW 21:10:08 10° SSW visible
17 Sep 4.6 20:39:03 10° W 20:41:01 14° SW 20:42:57 10° SSW visible
18 Sep 4.6 20:11:05 10° W 20:13:22 16° SW 20:15:38 10° SSW visible
19 Sep 4.6 19:43:07 10° W 19:45:40 18° SW 19:48:14 10° S visible
